Temp
61 61 60 59 60 60 59 59 59 58 57 57 56 56 56 56 53 55 54 53 53 52 51 50 50 49 48 49 49 49 48 46 45 44 45 45 44 44 42 43 44 43
60 60 59 59 59 58 58 59 58 58 57 57 57 56 55 53 52 53 52 51 50 50 50 49 48 47 46 46 47 46 45 45 43 42 42 41 41 41 40 41 40 40
59 59 58 58 58 58 57 57 58 58 57 56 56 54 51 52 51 50 50 50 48 48 48 47 46 45 45 44 45 44 44 42 41 40 40 39 38 38 38 39 39 39
58 58 58 58 58 57 56 56 55 56 55 53 52 51 50 50 50 48 47 46 47 46 45 44 43 43 42 41 41 41 41 40 38 38 36 35 35 36 37 37 37 37
57 57 57 57 57 57 56 55 54 54 53 52 50 48 48 48 48 47 46 45 45 43 42 40 41 40 39 39 39 38 37 35 35 36 36 35 34 34 34 36 36 36
56 56 56 56 56 56 55 55 54 53 51 49 48 47 48 47 46 45 44 42 41 41 39 38 38 37 37 36 36 36 36 36 36 37 36 35 34 35 35 36 37 36
54 54 55 56 55 55 55 54 53 52 51 50 47 46 46 45 44 43 43 42 41 40 39 39 37 36 36 36 36 36 35 35 36 37 37 36 36 35 35 36 36 35
53 54 54 54 53 53 52 51 50 49 47 45 46 45 46 46 44 42 41 41 41 41 40 39 38 37 36 37 36 35 34 35 36 37 36 36 37 36 35 35 35 35
51 50 51 51 51 49 49 47 46 45 45 45 44 42 42 43 41 41 41 41 40 39 38 38 38 37 36 37 37 36 36 36 37 37 37 36 36 35 35 34 34 34
47 46 47 47 47 46 45 44 44 43 43 44 42 41 40 39 40 40 40 40 39 38 38 37 37 36 36 37 37 38 37 36 36 36 36 36 35 35 34 34 34 34
44 44 45 45 44 43 42 42 41 41 40 40 39 39 39 39 39 39 40 40 39 38 37 37 37 37 37 36 36 37 37 36 36 35 35 35 34 34 34 34 33 33
42 43 43 42 42 41 40 40 39 39 39 39 40 39 38 39 39 39 40 39 39 38 38 38 37 37 37 36 36 36 36 35 35 35 34 34 34 34 34 34 33 33
41 41 41 40 39 39 39 39 39 39 39 39 39 39 39 38 38 38 38 39 38 38 37 37 37 37 36 36 35 35 35 34 34 34 33 33 33 33 33 33 33 33
39 39 39 39 39 39 39 39 38 38 39 38 38 38 38 38 38 38 37 38 37 37 37 37 36 36 36 35 35 35 34 34 34 33 33 32 32 32 32 32 32 32
38 38 38 38 38 38 38 38 38 37 37 37 37 37 38 38 38 37 36 36 36 36 36 36 36 36 35 35 34 34 34 34 33 33 33 32 31 31 32 32 32 32
37 38 37 37 37 37 37 37 37 36 36 36 36 36 37 37 37 37 37 36 35 35 36 35 35 35 34 35 35 34 34 33 33 33 32 32 31 31 31 31 31 32
37 37 37 37 38 37 37 36 36 36 36 36 36 36 36 36 36 36 36 36 36 35 35 35 35 34 35 37 36 35 34 33 32 32 32 32 32 31 30 30 30 31
38 38 37 37 37 36 36 36 36 36 36 36 35 35 35 36 36 36 36 36 36 36 35 35 35 36 37 37 36 35 34 33 32 31 31 31 31 31 30 30 30 30
38 37 37 37 37 36 36 35 35 35 34 34 34 35 35 35 35 34 34 34 35 35 34 35 36 37 37 37 36 35 34 32 32 31 31 30 30 30 30 30 29 29
37 37 37 37 36 36 35 35 35 35 34 34 33 33 33 33 32 33 33 34 34 34 34 35 35 36 37 36 35 35 34 32 31 31 31 31 30 30 30 29 29 28
37 37 36 36 35 35 34 34 35 34 33 32 32 33 32 31 31 31 31 32 32 33 34 34 35 36 36 36 35 34 33 32 31 30 30 30 30 30 29 29 28 28
37 37 36 35 35 34 34 34 33 32 31 31 31 32 31 31 30 30 30 30 31 32 33 32 35 36 36 35 35 34 33 30 30 30 29 29 29 29 29 29 29 28
37 36 35 34 34 33 33 33 31 30 30 30 30 30 30 29 29 29 30 30 30 31 32 33 34 35 35 35 34 34 30 29 28 28 28 28 28 28 28 29 29 28
37 36 35 34 33 33 33 32 31 30 29 30 30 29 28 28 28 28 28 29 29 30 31 31 32 34 34 34 34 32 29 27 28 28 27 27 27 28 28 28 28 28
36 36 35 34 33 33 33 30 29 29 28 28 29 29 28 27 27 27 26 26 27 28 29 30 31 32 34 33 33 31 29 28 28 27 26 26 26 26 27 26 27 28
35 34 34 34 33 33 31 30 29 28 27 28 27 28 27 26 26 25 24 25 25 26 28 29 30 31 32 33 32 31 30 28 28 26 25 25 25 25 24 25 26 27
MSLP
1018.46 1018.66 1018.86 1019.14 1019.30 1019.46 1019.82 1020.18 1020.50 1020.74 1021.02 1021.26 1021.54 1021.78 1022.02 1022.22 1022.54 1022.90 1023.18 1023.42 1023.62 1023.94 1024.18 1024.34 1024.58 1024.78 1025.22 1025.46 1025.66 1025.90 1026.10 1026.42 1026.78 1027.02 1027.22 1027.42 1027.74 1028.02 1028.34 1028.54 1028.66 1028.74
1018.22 1018.38 1018.62 1018.82 1019.10 1019.38 1019.62 1019.82 1020.14 1020.38 1020.66 1020.90 1021.06 1021.34 1021.82 1022.22 1022.50 1022.82 1023.22 1023.46 1023.78 1023.94 1024.18 1024.38 1024.54 1024.94 1025.34 1025.58 1025.82 1026.02 1026.38 1026.54 1026.98 1027.34 1027.50 1027.82 1028.22 1028.42 1028.62 1028.74 1028.86 1029.02
1018.06 1018.26 1018.42 1018.58 1018.74 1019.06 1019.34 1019.66 1019.90 1020.14 1020.38 1020.58 1020.86 1021.26 1021.78 1022.10 1022.42 1022.86 1023.22 1023.38 1023.66 1024.02 1024.18 1024.34 1024.74 1025.10 1025.42 1025.74 1025.94 1026.14 1026.42 1026.78 1027.22 1027.58 1027.70 1028.14 1028.46 1028.58 1028.82 1028.94 1029.02 1029.18
1017.86 1017.94 1018.10 1018.30 1018.50 1018.82 1019.18 1019.54 1019.82 1020.02 1020.30 1020.70 1020.98 1021.34 1021.66 1022.06 1022.34 1022.82 1023.22 1023.50 1023.66 1024.06 1024.30 1024.38 1024.78 1025.42 1025.74 1026.06 1026.18 1026.42 1026.74 1027.14 1027.58 1027.86 1028.14 1028.50 1028.66 1028.74 1028.90 1028.98 1029.14 1029.30
1017.66 1017.82 1017.94 1018.14 1018.34 1018.58 1018.98 1019.26 1019.58 1019.90 1020.18 1020.46 1020.98 1021.42 1021.78 1022.06 1022.34 1022.62 1023.10 1023.54 1023.74 1024.18 1024.38 1024.70 1025.22 1025.66 1026.06 1026.34 1026.42 1026.74 1027.14 1027.54 1027.90 1027.94 1028.06 1028.38 1028.82 1028.90 1028.94 1028.86 1028.90 1029.02
1017.54 1017.62 1017.74 1017.94 1018.14 1018.42 1018.78 1018.94 1019.22 1019.58 1019.98 1020.50 1020.74 1021.18 1021.50 1021.78 1022.10 1022.50 1022.86 1023.26 1023.86 1024.18 1024.58 1025.02 1025.42 1025.94 1026.22 1026.46 1026.66 1026.94 1027.30 1027.50 1027.78 1027.74 1027.86 1028.22 1028.62 1028.82 1028.86 1028.78 1028.66 1028.78
1017.42 1017.54 1017.66 1017.78 1017.98 1018.14 1018.38 1018.62 1018.98 1019.34 1019.66 1020.02 1020.66 1020.98 1021.30 1021.74 1022.02 1022.50 1022.90 1023.02 1023.74 1024.18 1024.54 1025.02 1025.50 1026.02 1026.34 1026.42 1026.66 1027.02 1027.42 1027.46 1027.58 1027.66 1027.62 1028.18 1028.30 1028.62 1028.82 1028.70 1028.74 1028.90
1017.30 1017.42 1017.50 1017.70 1017.90 1018.14 1018.26 1018.54 1018.94 1019.30 1019.66 1020.22 1020.46 1020.78 1021.02 1021.42 1021.82 1022.46 1022.98 1023.10 1023.58 1024.14 1024.62 1025.02 1025.42 1025.94 1026.26 1026.30 1026.50 1027.06 1027.34 1027.50 1027.50 1027.58 1027.74 1028.10 1028.18 1028.38 1028.74 1028.86 1028.94 1029.06
1017.50 1017.50 1017.62 1017.70 1017.86 1018.10 1018.34 1018.70 1019.14 1019.54 1019.86 1019.98 1020.54 1021.06 1021.30 1021.38 1021.82 1022.26 1022.82 1023.10 1023.70 1024.22 1024.62 1025.06 1025.42 1025.78 1026.06 1026.14 1026.46 1026.70 1026.90 1027.30 1027.42 1027.46 1027.58 1027.78 1028.06 1028.38 1028.70 1028.94 1029.10 1029.34
1017.62 1017.78 1017.86 1017.98 1018.06 1018.38 1018.62 1019.02 1019.42 1019.74 1020.02 1020.22 1020.66 1021.14 1021.38 1021.86 1022.14 1022.46 1022.78 1023.10 1023.70 1024.30 1024.66 1025.02 1025.42 1025.70 1025.86 1026.02 1026.22 1026.42 1026.74 1027.10 1027.42 1027.54 1027.66 1027.86 1028.06 1028.42 1028.74 1028.98 1029.22 1029.54
1017.82 1017.98 1018.02 1018.22 1018.46 1018.78 1019.06 1019.38 1019.66 1020.02 1020.30 1020.54 1020.98 1021.38 1021.54 1021.78 1022.42 1022.70 1022.82 1023.18 1023.62 1024.02 1024.50 1024.90 1025.18 1025.38 1025.62 1026.06 1026.38 1026.58 1026.82 1027.06 1027.34 1027.58 1027.86 1028.10 1028.30 1028.50 1028.82 1029.10 1029.38 1029.54
1018.06 1018.18 1018.26 1018.46 1018.70 1019.02 1019.34 1019.66 1019.94 1020.18 1020.46 1020.78 1020.86 1021.18 1021.70 1021.86 1022.18 1022.62 1022.70 1023.18 1023.62 1024.02 1024.38 1024.78 1025.06 1025.26 1025.54 1025.90 1026.38 1026.74 1026.94 1027.10 1027.38 1027.66 1027.94 1028.14 1028.38 1028.66 1028.98 1029.26 1029.46 1029.66
1018.18 1018.30 1018.46 1018.70 1018.98 1019.22 1019.50 1019.78 1019.98 1020.26 1020.46 1020.50 1020.74 1021.06 1021.38 1021.90 1022.42 1022.66 1023.06 1023.26 1023.74 1024.10 1024.38 1024.66 1024.94 1025.22 1025.58 1025.98 1026.38 1026.66 1026.82 1027.06 1027.46 1027.82 1028.06 1028.30 1028.58 1028.86 1029.14 1029.38 1029.62 1029.78
1018.22 1018.42 1018.62 1018.74 1019.02 1019.38 1019.50 1019.70 1019.98 1020.22 1020.42 1020.78 1020.98 1021.26 1021.66 1021.90 1022.18 1022.58 1023.14 1023.42 1023.78 1024.10 1024.42 1024.62 1024.86 1025.26 1025.66 1026.02 1026.30 1026.54 1026.78 1027.14 1027.46 1027.78 1028.10 1028.46 1028.82 1029.10 1029.34 1029.58 1029.74 1029.86
1018.58 1018.74 1019.02 1019.22 1019.38 1019.58 1019.78 1020.02 1020.22 1020.46 1020.74 1020.94 1021.22 1021.50 1021.78 1021.98 1022.26 1022.58 1023.02 1023.58 1023.98 1024.18 1024.46 1024.70 1024.86 1025.22 1025.54 1025.86 1026.22 1026.62 1026.82 1027.18 1027.54 1027.78 1028.02 1028.46 1028.86 1029.22 1029.50 1029.62 1029.78 1029.90
1018.78 1018.94 1019.10 1019.38 1019.54 1019.70 1019.90 1020.10 1020.30 1020.58 1020.82 1021.10 1021.38 1021.66 1021.90 1022.22 1022.50 1022.82 1022.94 1023.30 1023.82 1024.26 1024.50 1024.74 1025.06 1025.38 1025.66 1025.94 1026.10 1026.30 1026.78 1027.22 1027.58 1027.86 1028.06 1028.34 1028.74 1029.18 1029.50 1029.74 1029.86 1029.94
1018.74 1019.02 1019.14 1019.26 1019.46 1019.74 1019.98 1020.18 1020.42 1020.62 1020.90 1021.22 1021.54 1021.82 1022.10 1022.42 1022.58 1022.86 1023.18 1023.46 1023.74 1024.06 1024.46 1024.82 1025.18 1025.46 1025.74 1025.98 1026.22 1026.50 1026.74 1027.10 1027.46 1027.90 1028.14 1028.34 1028.62 1028.94 1029.34 1029.66 1029.86 1029.98
1018.78 1019.06 1019.26 1019.38 1019.58 1019.78 1020.02 1020.22 1020.42 1020.62 1020.86 1021.22 1021.58 1021.90 1022.22 1022.46 1022.66 1022.86 1023.22 1023.58 1023.90 1024.22 1024.50 1024.86 1025.18 1025.46 1025.70 1025.98 1026.26 1026.62 1026.86 1027.10 1027.46 1027.78 1028.10 1028.34 1028.62 1028.90 1029.22 1029.50 1029.70 1029.90
1018.74 1018.98 1019.22 1019.50 1019.62 1019.86 1020.14 1020.42 1020.54 1020.62 1020.90 1021.30 1021.62 1021.90 1022.26 1022.46 1022.74 1023.10 1023.46 1023.74 1023.94 1024.18 1024.58 1024.86 1025.14 1025.46 1025.78 1026.06 1026.34 1026.62 1026.94 1027.26 1027.54 1027.78 1028.02 1028.34 1028.62 1028.86 1029.10 1029.34 1029.58 1029.82
1018.66 1018.86 1019.10 1019.42 1019.70 1019.98 1020.22 1020.42 1020.54 1020.66 1021.06 1021.42 1021.78 1022.18 1022.30 1022.62 1023.02 1023.30 1023.62 1023.82 1023.98 1024.22 1024.54 1024.86 1025.22 1025.58 1025.82 1026.10 1026.38 1026.66 1026.98 1027.30 1027.58 1027.78 1028.02 1028.30 1028.58 1028.86 1029.10 1029.34 1029.54 1029.62
1018.66 1018.86 1019.06 1019.42 1019.74 1020.02 1020.22 1020.38 1020.58 1020.90 1021.26 1021.58 1021.86 1022.02 1022.26 1022.58 1022.94 1023.30 1023.62 1023.82 1024.10 1024.30 1024.50 1024.98 1025.38 1025.62 1025.90 1026.14 1026.38 1026.66 1027.02 1027.38 1027.62 1027.82 1028.10 1028.42 1028.66 1028.90 1029.10 1029.26 1029.38 1029.38
1018.62 1018.90 1019.18 1019.54 1019.82 1020.10 1020.22 1020.42 1020.70 1020.98 1021.30 1021.74 1022.02 1022.34 1022.66 1022.94 1023.26 1023.38 1023.62 1023.94 1024.18 1024.30 1024.58 1025.06 1025.46 1025.70 1025.94 1026.14 1026.34 1026.66 1027.02 1027.42 1027.62 1027.86 1028.14 1028.42 1028.74 1028.98 1029.10 1029.22 1029.26 1029.26
1018.30 1018.58 1018.98 1019.38 1019.74 1019.98 1020.22 1020.42 1020.74 1021.22 1021.58 1021.82 1022.10 1022.46 1022.70 1023.02 1023.22 1023.46 1023.70 1023.86 1024.14 1024.30 1024.50 1024.98 1025.38 1025.66 1025.90 1026.06 1026.30 1026.62 1027.06 1027.38 1027.58 1027.82 1028.10 1028.38 1028.62 1028.86 1028.98 1029.06 1029.06 1029.14
1018.14 1018.34 1018.66 1019.10 1019.50 1019.70 1019.98 1020.42 1020.86 1021.26 1021.62 1021.82 1021.82 1022.22 1022.62 1022.98 1023.26 1023.66 1023.94 1024.02 1024.02 1024.22 1024.42 1024.74 1025.30 1025.58 1025.78 1025.98 1026.26 1026.62 1026.98 1027.18 1027.38 1027.58 1028.02 1028.26 1028.54 1028.74 1028.82 1028.86 1028.94 1029.10
1018.02 1018.18 1018.42 1018.74 1019.10 1019.38 1019.70 1020.10 1020.58 1020.90 1021.46 1021.82 1022.02 1022.30 1022.66 1023.10 1023.42 1023.66 1024.06 1024.30 1024.38 1024.42 1024.62 1024.78 1025.10 1025.46 1025.70 1025.90 1026.18 1026.50 1026.86 1026.98 1027.14 1027.34 1027.78 1028.18 1028.38 1028.62 1028.74 1028.82 1028.90 1028.94
1017.94 1018.14 1018.30 1018.54 1018.82 1019.22 1019.62 1019.98 1020.54 1021.06 1021.42 1021.70 1022.10 1022.38 1022.82 1023.22 1023.54 1023.78 1023.94 1024.38 1024.62 1024.70 1024.82 1024.86 1025.06 1025.34 1025.54 1025.78 1025.98 1026.34 1026.62 1026.78 1026.94 1027.14 1027.58 1027.94 1028.18 1028.30 1028.62 1028.70 1028.86 1028.98
Wind_Speed
11 9 10 10 10 10 10 10 9 9 9 8 9 8 10 7 8 8 7 7 8 8 7 7 6 7 6 5 5 5 6 6 6 5 7 7 7 8 7 8 8 7
11 10 9 9 8 7 8 10 10 10 10 10 9 9 7 8 8 8 8 8 7 7 7 7 7 7 7 6 7 7 6 7 7 5 8 9 8 9 8 9 7 7
10 9 10 11 10 10 10 10 10 9 9 9 8 8 8 8 9 8 7 8 8 7 7 8 8 7 7 7 7 7 7 8 8 7 8 8 7 8 7 7 6 6
10 10 10 10 9 10 9 9 8 7 6 7 8 8 9 9 9 9 8 7 8 7 7 9 9 8 8 8 8 7 8 8 8 8 8 6 6 7 7 6 5 5
10 9 8 8 8 9 9 9 9 8 9 9 8 8 8 9 9 10 9 7 8 7 8 10 8 8 9 9 10 9 8 8 6 5 6 6 5 5 5 6 6 6
7 8 8 9 9 9 9 9 10 10 9 8 10 9 9 10 9 10 10 10 7 8 9 8 9 8 9 9 8 7 6 6 5 7 8 7 5 4 4 6 8 8
8 7 8 8 9 10 11 10 10 10 10 10 9 9 10 10 10 9 9 11 10 9 11 10 10 9 8 8 7 7 5 6 6 8 9 6 7 7 5 7 7 7
7 7 8 7 8 8 8 8 8 8 9 9 10 10 11 11 11 10 8 10 11 9 10 9 9 8 8 8 8 8 8 6 7 9 9 8 7 7 6 5 6 7
4 5 5 7 8 7 7 7 7 6 7 10 9 8 5 9 10 11 11 11 10 10 10 9 9 9 8 9 8 9 9 7 7 9 9 9 8 7 7 6 6 6
4 3 5 5 6 5 7 6 7 7 6 7 8 8 9 7 7 9 10 11 11 10 10 10 9 9 8 8 9 9 10 9 8 7 8 8 8 8 7 6 6 6
4 4 5 5 5 5 6 6 7 7 6 9 9 7 8 10 8 8 10 10 10 11 10 10 10 11 10 9 7 7 8 9 8 7 7 7 7 7 6 6 5 5
4 4 5 5 6 6 7 7 7 7 9 7 8 11 8 8 10 8 10 10 10 10 9 9 10 10 10 10 8 8 8 7 7 7 7 7 7 6 6 5 6 5
5 4 6 6 6 7 7 7 8 8 7 10 10 10 11 11 9 9 7 10 10 9 10 11 10 9 9 8 8 7 8 9 8 7 7 6 6 6 6 5 5 5
5 5 6 7 7 7 7 7 8 8 8 7 8 9 9 10 12 11 9 9 9 9 8 9 9 8 8 7 7 7 8 8 8 8 8 8 7 6 6 5 5 5
4 4 4 4 6 6 6 7 7 7 7 8 8 8 7 9 9 11 12 10 8 8 8 8 9 8 7 8 8 7 7 9 8 8 9 9 8 7 6 5 5 4
5 5 7 6 7 7 7 7 8 9 9 9 9 8 9 9 10 9 11 12 11 8 8 7 7 6 8 10 9 9 8 7 7 7 8 8 9 8 6 5 5 5
6 6 7 8 8 7 8 8 9 8 9 9 9 9 10 10 10 11 10 9 10 10 8 6 6 6 13 13 14 13 9 8 8 7 7 7 7 7 7 6 5 5
7 7 6 7 7 8 8 8 8 8 9 10 10 10 9 9 10 10 10 9 8 8 7 7 7 11 15 14 14 14 10 7 7 7 7 7 7 7 6 6 6 5
7 8 7 7 7 8 7 7 8 8 9 9 9 9 9 10 10 10 8 7 9 9 8 7 8 12 14 15 14 14 14 10 6 7 8 7 7 6 6 6 5 5
7 7 8 8 7 8 8 7 7 8 8 7 8 8 9 8 7 10 9 9 9 9 8 8 9 12 14 15 14 15 14 10 6 8 7 7 7 6 5 5 5 5
7 7 8 7 7 7 7 7 7 7 8 7 8 9 9 10 10 10 8 9 9 8 8 8 7 14 15 15 15 15 15 10 7 7 7 6 6 6 5 5 5 4
8 7 7 6 7 6 7 8 7 8 9 7 7 6 5 6 5 6 9 9 8 9 10 8 9 15 15 15 16 15 15 7 7 7 7 7 6 5 5 4 4 4
9 9 9 8 7 8 8 8 8 8 7 6 8 7 8 8 8 7 7 9 10 9 10 9 10 13 15 16 16 16 11 5 6 6 6 7 6 6 5 4 4 4
9 9 9 9 9 10 9 7 6 5 7 7 10 10 9 8 8 8 6 7 10 10 10 11 9 13 16 15 16 15 10 7 6 7 7 6 6 5 4 4 4 5
9 8 9 10 11 10 10 11 10 9 7 6 6 7 8 7 7 8 7 5 5 8 10 10 10 12 16 15 16 15 10 6 7 7 8 6 6 6 4 3 4 4
7 8 9 10 11 9 9 9 8 8 9 8 7 6 8 7 7 7 10 7 6 7 8 8 10 9 12 16 15 15 14 7 5 8 7 8 6 6 6 4 3 2
Wind_Direction
207 201 201 198 201 199 188 189 187 184 187 180 179 185 183 179 149 155 150 140 140 140 137 128 122 116 117 122 124 121 118 116 104 110 112 114 116 122 126 132 132 131
207 203 201 199 198 190 188 188 186 185 187 183 187 175 160 149 153 147 151 140 137 134 132 125 115 125 130 132 136 130 123 117 110 115 119 120 125 127 128 130 127 125
205 202 198 197 196 191 185 186 185 188 185 188 171 157 153 157 145 142 142 143 137 136 130 121 119 121 127 130 132 128 127 124 123 124 119 125 129 126 127 127 121 118
206 203 200 200 194 188 180 177 186 183 167 154 165 158 154 154 144 141 134 136 130 127 123 98 109 124 122 126 126 122 124 122 129 128 119 114 116 123 127 124 119 114
204 202 200 195 190 182 175 180 179 174 173 169 144 144 143 145 147 143 142 139 132 128 117 105 123 122 126 128 129 124 125 127 134 133 116 110 119 125 130 130 124 111
207 202 194 189 185 179 181 185 181 174 165 155 163 154 155 152 146 146 144 137 135 135 116 122 128 129 133 133 128 127 132 132 137 127 114 116 122 116 128 127 115 104
198 193 193 191 186 185 184 186 178 172 169 166 149 159 151 151 146 147 148 139 139 142 138 137 135 137 140 135 123 128 129 129 129 126 117 118 118 115 112 109 106 105
196 192 187 183 183 184 184 176 169 167 157 145 164 158 159 153 148 143 145 139 139 142 140 136 133 139 145 134 129 128 125 135 132 128 120 122 125 116 114 105 109 107
193 190 180 181 178 176 169 160 153 146 153 152 149 149 140 144 146 146 148 140 135 137 136 139 142 143 145 136 137 138 138 139 140 135 134 134 128 125 121 117 106 108
177 169 168 170 170 159 153 144 143 146 149 140 138 142 139 127 134 138 138 136 135 137 143 144 146 144 140 139 141 141 137 137 138 128 122 121 123 125 124 119 123 123
159 162 160 155 147 138 138 138 139 138 136 136 133 135 137 136 131 139 134 138 144 148 148 148 146 143 131 130 128 133 132 132 127 118 113 114 114 115 119 122 126 122
153 148 150 146 145 142 145 143 138 142 144 140 144 141 140 137 141 147 146 144 143 144 144 142 140 139 135 131 133 133 127 116 112 112 114 112 111 110 117 119 123 128
150 154 150 145 149 147 141 142 144 143 148 152 152 148 146 142 141 133 136 138 140 141 144 141 136 133 131 131 133 133 127 122 119 118 115 108 105 111 112 114 120 126
159 154 157 154 147 147 149 146 144 147 144 136 132 136 138 142 145 144 141 140 141 142 140 139 134 129 129 132 132 133 128 121 126 126 119 112 110 108 112 117 119 117
149 137 117 121 129 130 133 134 131 124 122 126 129 131 135 141 139 139 138 133 131 137 137 137 137 140 144 143 136 127 126 128 132 128 126 124 119 115 115 115 113 109
143 142 141 139 140 144 143 140 136 136 135 135 138 140 139 139 138 141 140 142 140 138 136 135 132 132 138 135 136 137 134 130 126 128 129 128 127 125 118 114 112 113
149 157 150 154 154 146 145 144 143 141 140 139 140 144 145 146 143 141 142 144 144 141 134 127 129 132 140 140 137 136 132 134 134 132 129 128 131 131 131 131 127 121
162 155 160 154 149 152 153 150 147 147 146 148 147 149 150 146 147 146 142 140 133 127 121 128 127 142 141 139 138 137 137 128 130 131 133 131 132 131 134 138 139 137
165 163 163 162 163 156 154 153 155 150 148 151 156 151 143 150 147 140 136 131 134 131 128 131 130 142 139 140 139 138 135 130 127 130 130 132 133 134 138 142 146 146
168 166 166 167 161 158 157 159 157 157 153 149 143 147 150 141 138 138 137 139 141 136 129 129 130 142 141 140 139 137 137 133 128 129 125 126 130 133 135 142 152 158
169 170 165 161 161 159 158 159 158 149 151 153 156 158 155 153 150 146 147 142 140 136 129 130 134 143 141 142 142 139 137 133 126 122 119 119 120 125 134 141 149 145
166 167 164 159 160 160 161 162 162 161 157 152 146 139 130 131 133 138 143 140 138 138 132 133 142 146 146 146 144 141 139 131 131 127 124 126 126 135 143 144 146 138
171 168 166 165 164 165 169 168 161 158 154 149 145 148 148 152 151 148 148 145 145 144 139 138 144 151 151 149 146 144 139 134 132 126 129 135 140 145 150 151 143 139
173 171 168 168 168 175 172 165 155 146 158 164 160 157 156 155 146 139 144 150 149 149 151 145 149 154 155 153 151 151 149 145 146 138 136 140 141 150 153 145 144 157
176 176 173 172 176 177 171 167 168 166 154 152 153 149 148 144 146 142 138 137 143 142 147 147 148 155 158 157 156 157 155 152 150 144 142 149 151 151 151 149 158 157
179 179 179 177 178 172 170 167 152 149 160 154 151 147 144 145 142 146 145 147 146 147 152 154 152 156 162 161 162 162 163 157 151 146 152 155 158 157 157 160 155 166